Regional Weather Roundup
Issued by NWS

Home | Current Version | Previous Version | Text Only | Print | Product List | Glossary On
Versions: 1 2 3 4 5 6 7 8 9 10 11 12 13 14 15 16 17 18 19 20 21 22 23 24 25 26 27 28 29 30 31 32 33 34 35 36 37 38 39 40 41 42 43 44 45 46 47 48 49 50
000
ASUS46 KSTO 240209
RWRCA

NORTHERN AND CENTRAL CA REGIONAL WEATHER ROUNDUP
NATIONAL WEATHER SERVICE SACRAMENTO CA
700 PM PDT WED AUG 23 2017

NOTE: FAIR INDICATES FEW OR NO CLOUDS BELOW 12,000 FEET WITH NO
SIGNIFICANT WEATHER AND/OR OBSTRUCTIONS TO VISIBILITY.

CAZ001-003-240300-
NORTHWEST AREA

CITY           SKY/WX    TMP DP  RH WIND       PRES   REMARKS
CRESCENT CITY  FOG       54  54 100 NW3       30.01F VSB 1/4
ARCATA         NOT AVBL
SHELTER COVE   NOT AVBL
UKIAH          CLEAR     86  46  24 N8        29.86S HAZE
$$

CAZ006-505>513-240300-
BAY AREA

CITY           SKY/WX    TMP DP  RH WIND       PRES   REMARKS
SANTA ROSA     CLEAR     68  55  63 SE10      29.86S
SAN RAFAEL     N/A       83  MM  MM MISG
NAPA           CLEAR     66  58  75 S15       29.86S
CONCORD        CLEAR     80  54  40 W10       29.84S
OAKLAND CITY   N/A      MM  MM  MM MISG
OAKLAND        MOCLDY    59  58  96 NW14      29.91S
SAN FRAN CITY  N/A       59  MM  87 MISG
SAN FRAN ARPT  PTCLDY    61  55  81 W22       29.90S
LIVERMORE      CLEAR     75  55  49 W12       29.86S
HAYWARD        CLEAR     63  55  75 NW12      29.91R
REDWOOD CITY   N/A       76  MM  62 MISG
MOFFETT ARPT   CLEAR     67  60  78 N13       29.91R
SAN JOSE ARPT  CLEAR     72  59  63 NW14      29.89S
$$
CAZ034-037-514>518-240300-
CENTRAL COAST

CITY           SKY/WX    TMP DP  RH WIND       PRES   REMARKS
WATSONVILLE    CLOUDY    61  59  93 SW7       29.95S
SALINAS        CLOUDY    62  58  86 W10       29.93S
MONTEREY       CLOUDY    61  58  90 SW8       29.94F
PT PIEDRAS BLS NOT AVBL
SAN LUIS OBISP PTCLDY    64  57  78 NW15      29.93S
SANTA MARIA    CLOUDY    62  58  86 NW9       29.93F FOG
$$
CAZ015-016-240300-
NORTHERN SACRAMENTO VALLEY

CITY           SKY/WX    TMP DP  RH WIND       PRES   REMARKS
REDDING        CLEAR     98  51  20 S10       29.75F HX  95
RED BLUFF      CLEAR     97  54  23 S10       29.76F HX  95
OROVILLE       CLEAR     97  52  21 CALM      29.77F HX  94
$$
CAZ016>018-240300-
SOUTHERN SACRAMENTO VALLEY

CITY           SKY/WX    TMP DP  RH WIND       PRES   REMARKS
AUBURN         CLEAR     90  90 100 W6        29.87F HX 129
BEALE AFB      CLEAR     94  64  37 S8        29.75F HX  96
LINCOLN        FAIR      95  52  23 W5        29.76F HX  92
MARYSVILLE     CLEAR     96  59  29 S9        29.76F HX  95
SAC INTL ARPT  CLEAR     92  63  38 S8        29.76F HX  93
MATHER AIRPORT CLEAR     91  57  31 SW9       29.78F HX  90
DOWNTOWN SAC   N/A       89  MM  MM MISG
SAC EXEC ARPT  CLEAR     85  61  44 S8        29.78S
VACAVILLE      CLEAR     94  56  27 SW10      29.79F HX  92
TRAVIS AFB     CLEAR     77  57  49 SW21G28   29.77F
$$
CAZ019>021-240300-
SAN JOAQUIN VALLEY

CITY           SKY/WX    TMP DP  RH WIND       PRES   REMARKS
STOCKTON       CLEAR     88  55  32 W15       29.80S
MODESTO        CLEAR     91  60  35 NW16      29.78S HX  90
MERCED         CLEAR     92  59  33 NW14      29.77F HX  91
LEMOORE        PTCLDY    95  61  32 N12       29.78S HX  95
FRESNO         PTCLDY    94  56  27 NW10      29.78F HX  92
HANFORD        CLEAR     93  58  30 NW8       29.78F HX  92
PORTERVILLE      N/A     94  58  29 NW6       29.79F HX  93
BAKERSFIELD    CLEAR     95  56  26 NW8       29.79S HX  93
$$
CAZ011-012-071-240300-
NORTHERN MOUNTAINS

CITY           SKY/WX    TMP DP  RH WIND       PRES   REMARKS
YREKA          PTCLDY    87  46  24 N10       29.93S HAZE
MOUNT SHASTA   PTCLDY    76  53  44 CALM      29.98S
ALTURAS        MOCLDY    83  40  21 NW8       30.03F
$$
CAZ011-012-071-240300-
SIERRA NEVADA MTNS

CITY           SKY/WX    TMP DP  RH WIND       PRES   REMARKS
BLUE CANYON    CLEAR     75  43  31 W5        30.15F
TRUCKEE        CLEAR     73  41  31 W13       30.16S
TAHOE VLY ARPT MOCLDY    71  44  37 CALM      30.17F
MAMMOTH LAKES  FAIR      69  40  35 SW7       30.21S
$$



USA.gov is the U.S. government's official web portal to all federal, state and local government web resources and services.